Miscellaneous Local Product
Issued by NWS North Platte, NE

Home | Current Version | Previous Version | Graphics & Text | Print | Product List | Glossary On
Versions: 1 2 3 4 5 6 7 8 9 10 11 12 13 14 15 16 17 18 19 20 21 22 23 24 25 26 27 28 29 30 31 32 33 34 35 36 37 38 39 40 41 42 43 44 45 46 47 48 49 50
000
AXUS43 KLBF 240210
MISLBF


WESTERN AND NORTH CENTRAL NEBRASKA HOURLY WEATHER ROUNDUP
NATIONAL WEATHER SERVICE NORTH PLATTE NE
900 PM CDT THU APR 23 2015

***STATIONS NOT REPORTING VARIABLES SUCH AS SKY/WEATHER OR
PRESSURE ARE PROVIDED BY THE NEBRASKA DEPARTMENT OF
ROADS...RAWS...AND APRS NETWORKS...AND ARE NOT UNDER
NATIONAL WEATHER SERVICE QUALITY CONTROL***

...OBSERVATIONS IN AND NEAR THE EASTERN PANHANDLE OF NEBRASKA...

CITY           SKY/WX    TMP DP  RH WIND       PRES   REMARKS
PINE RIDGE     LGT RAIN  62  38  40 W24G35    29.63R
CHADRON        CLOUDY    60  41  49 MISG      29.63F
ALLIANCE       CLOUDY    55  38  52 S9        29.65F
SIDNEY         CLOUDY    53  41  63 SE12      29.73R
WHITECLAY        N/A     63  37  39 W16         N/A
CRESCENT LAKE    N/A     55  40  58 SE6         N/A
BIG SPRINGS      N/A     54  47  78 E12         N/A
$$

...OBSERVATIONS IN NORTH CENTRAL NEBRASKA...

CITY           SKY/WX    TMP DP  RH WIND       PRES   REMARKS
VALENTINE      MOCLDY    61  44  53 SE13      29.68F
THEDFORD       CLOUDY    62  46  56 S18G26    29.73R
AINSWORTH      MOCLDY    59  42  53 SE12      29.73R
O`NEILL        MOCLDY    60  38  44 S12       29.78S
ORD            MOCLDY    58  40  51 SE13      29.78S
BROKEN BOW     MOCLDY    57  41  55 SE12      29.78R
BROWNLEE         N/A     64  44  48 SE18        N/A
VALENTINE NWR    N/A     62  44  52 S13G20      N/A
SPRINGVIEW       N/A     60  43  54 E8          N/A
HALSEY           N/A     61  44  53 SE12G20     N/A
BREWSTER         N/A     64  44  49 S15         N/A
ROSE             N/A     61  45  54 E14         N/A
NEWPORT          N/A     59  42  52 SE12        N/A
SARGENT          N/A     57  43  59 S5          N/A
COMSTOCK         N/A     60  43  54 S14         N/A
EWING            N/A     60  36  41 S9G16       N/A
$$

...OBSERVATIONS IN SOUTHWEST NEBRASKA AND FAR NORTHEAST COLORADO...

CITY           SKY/WX    TMP DP  RH WIND       PRES   REMARKS
WRAY           FAIR      61  39  45 S17G29    29.72R THUNDER
HOLYOKE        DRIZZLE   54  48  82 NE16      29.75F
IMPERIAL       LGT RAIN  64  43  46 SW22G31   29.76R
OGALLALA       LGT RAIN  53  47  81 SE14G22   29.78S
NORTH PLATTE   CLOUDY    61  49  64 S10       29.79R
MCCOOK         CLOUDY    63  50  62 S17       29.76R
LEXINGTON      CLOUDY    60  47  61 S18       29.78S
PAXTON           N/A     64  52  66 S6          N/A
SUTHERLAND       N/A     45  43  93 S25         N/A
BRADY            N/A     59  49  68 CALM        N/A
GOTHENBURG       N/A     62  46  56 S8          N/A
CALLAWAY         N/A     59  46  63 SE12        N/A
$$

...NORTH PLATTE AREA...

CITY           SKY/WX    TMP DP  RH WIND       PRES   REMARKS
AIRPORT        CLOUDY    61  49  64 S10       29.79R
DOWNTOWN         N/A     62  50  66 S5G12       N/A
$$

...SOME WEATHER OBSERVATIONS FROM AROUND THE REGION...

CITY           SKY/WX    TMP DP  RH WIND       PRES   REMARKS
DENVER         CLOUDY    58  32  37 SW9       29.75R
LARAMIE        MOCLDY    40  33  76 W7        29.82R
CHEYENNE       MOCLDY    53  31  42 W9        29.77R
SCOTTSBLUFF    PTCLDY    57  39  51 E9        29.67R
RAPID CITY     CLOUDY    53  48  83 NW6       29.61R
PIERRE         MOCLDY    64  44  48 SE16      29.63F
WINNER         FAIR      63  41  44 S13       29.69S
SIOUX FALLS    PTCLDY    57  27  31 SE12      29.86S
OMAHA          CLOUDY    61  31  32 SE14      29.90F
GRAND ISLAND   CLOUDY    59  37  44 SE18      29.83F
KANSAS CITY    MOCLDY    60  34  37 SE8       29.95F
WICHITA        MOCLDY    61  48  62 SE17      29.87S
HAYS           CLOUDY    61  46  59 SE17      29.82F
LIBERAL        PTCLDY    63  50  63 SE21G29   29.77S
GOODLAND       MOCLDY    58  52  80 SE12      29.78R
$$



USA.gov is the U.S. government's official web portal to all federal, state and local government web resources and services.